Weather in Krasnaya Zvezda

Russia / Saratov Oblast     52°11′56″N   43°26′43″E
temp.,
°C
wind,
m/s
gust,
m/s
humid.,
%
clouds,
%
prec.,
mm/h
press.,
hPa
HPBL,
m
22 april, thu
thu2201:00+6s3991100 0.0 1018200
04:00+6s38935 0.0 1019142
07:00+6s36925 0.0 1020144
10:00+11sw57705 0.0 1021684
13:00+13wsw685627 0.6 10211766
16:00+14w4654100 0.7 10211276
19:00+12w23647 0.0 102177
22:00+9s00707 0.0 102310
23 april, fri
fri2301:00+9ese337191 0.0 102328
04:00+9se3572100 0.0 102293
07:00+9ese3677100 0.0 1022112
10:00+13se466256 0.0 1022408
13:00+16se444699 0.1 10202013
16:00+14sse6660100 0.4 10201185
19:00+11sse4676100 0.1 1019478
22:00+9sse3688100 0.1 1018143
24 april, sat
sat2401:00+7s349035 0.0 101667
04:00+7sse339064 0.0 101440
07:00+8sse4989100 0.0 1013293
10:00+11ssw6878100 0.2 1011736
13:00+13sw81066100 0.8 10091651
16:00+6wnw6984100 1.4 1011772
19:00+9wsw476336 0.1 1011909
22:00+5sw6890100 0.8 1012609
25 april, sun
sun2501:00+4sw410905 1.6 1011313
04:00+3wsw71195100 1.8 1012612
07:00+2wsw8128775 0.3 1014844
10:00+5w8117191 0.3 10151216
13:00+9w81048100 0.1 10172369
16:00+9wsw81046100 0.1 10172370
19:00+7w585970 0.1 1018683
22:00+5sw497018 0.1 1019176
26 april, mon
mon2601:00+3ssw487570 0.0 1019128
04:00+2ssw47745 0.0 1019108
07:00+3s3874100 0.0 1019176
10:00+8ssw5857100 0.0 1018695
13:00+11ssw6744100 0.0 10161713
16:00+12ssw5741100 0.0 10142152
19:00+10wsw3458100 0.0 1012133
22:00+7s336793 0.0 101138